Location: Krakow
(50.0830°N, 19.9170°E)
Time: 16:31:51
(UTC+02:00)

A-11 Canister half - Pass Details

Date: 03 June 2024
Orbit: 1515 x 1684 km, 47.2° (Epoch: 08 September)

Event Time Altitude Azimuth Distance (km) Brightness Sun altitude
Rises 00:34:52 0° 238° (WSW) 4,838 11.3 -17.6°
Reaches altitude 10° 00:38:04 10° 235° (SW) 3,830 10.8 -17.6°
Maximum altitude 00:47:33 61° 158° (SSE) 1,745 9.0 -17.5°
Drops below altitude 10° 00:56:44 10° 82° (E) 3,714 11.2 -17.5°
Sets 00:59:46 0° 79° (E) 4,684 11.8 -17.4°
